Skip Page Navigation
NASA JPL Caltech
NASA Logo - Jet Propulsion Laboratory + View the NASA Portal
+ Center for Near-Earth Object Studies
JPL Home Earth Solar System Stars & Galaxies Technology
JPL Solar System Dynamics
BODIES ORBITS EPHEMERIDES TOOLS PHYSICAL DATA DISCOVERY FAQ SITE MAP
JPL Small-Body Database Browser
Search: [ help ]  
24010 Stovall (1999 RR104)
Classification: Main-belt Asteroid          SPK-ID: 2024010
Ephemeris | Orbit Diagram | Orbital Elements | Mission Design | Physical Parameters | Discovery Circumstances ]

[ show orbit diagram ]
Orbital Elements at Epoch 2459200.5 (2020-Dec-17.0) TDB
Reference: JPL 23 (heliocentric ecliptic J2000)
 Element Value Uncertainty (1-sigma)   Units 
e .1177611659814251 3.0841e-08  
a 2.245856297858354 7.2375e-09 au
q 1.981381641595828 7.1103e-08 au
i 5.603469255656788 3.2217e-06 deg
node 260.4914623646296 4.2233e-05 deg
peri 151.5967101446702 4.5905e-05 deg
M 60.8995043537961 1.8944e-05 deg
tp 2458992.538648790635
(2020-May-23.03864879)
6.4339e-05 TDB
period 1229.338189690944
3.37
5.9425e-06
1.627e-08
d
yr
n .2928404917531312 1.4156e-09 deg/d
Q 2.510330954120881 8.0898e-09 au
  Orbit Determination Parameters
   # obs. used (total)      950  
   data-arc span      8855 days (24.24 yr)  
   first obs. used      1996-12-08  
   last obs. used      2021-03-07  
   planetary ephem.      DE441  
   SB-pert. ephem.      SB441-N16  
   condition code      0  
   norm. resid. RMS      .49019  
   source      ORB  
   producer      Otto Matic  
   solution date      2021-Apr-13 04:34:46  

Additional Information
 Earth MOID = .993888 au 
 Jupiter MOID = 2.80013 au 
 T_jup = 3.615 
[ show covariance matrix ]

Ephemeris | Orbit Diagram | Orbital Elements | Mission Design | Physical Parameters | Discovery Circumstances ]

Physical Parameter Table
Parameter Symbol Value Units Sigma Reference Notes
absolute magnitude H 15.95   n/a MPCxxxxx  

24010 Stovall           Discovered 1999 Sept. 8 by the Lincoln Laboratory Near-Earth Asteroid Research Team at Socorro.
Laraine Stovall mentored a finalist in the 2007 Discovery Channel Young Scientist Challenge (DCYSC), a middle school science competition. She teaches at the Centennial Middle School, Dade City, Florida.
NOTE: some special characters may not display properly (any characters within {} are an attempt to place the proper accent above a character)
Reference: 20071026/MPCPages.arcLast Updated: 2007-10-28

Alternate Designations
 1999 RR104 = 1996 XM31 
Ephemeris | Orbit Diagram | Orbital Elements | Mission Design | Physical Parameters | Discovery Circumstances ]
ABOUT SSD CREDITS/AWARDS PRIVACY/COPYRIGHT GLOSSARY LINKS
FirstGov 2021-Jun-23 19:29 UT
(server date/time)  
NASA Home Page
Site Manager:   Ryan S. Park
Webmaster  Alan B. Chamberlin